Flag for U.S.A. Weather past 2 weeks in Asheville, North Carolina, U.S.A.

Now
45 °F

Light rain. Mostly cloudy.


Feels Like: 41 °F
Forecast: 31 / 42 °F
Wind: 8 mph from Southwest

Location: Asheville Regional Airport

Current Time: Jan 25, 2015 at 9:44:38 PM

Latest Report: Jan 25, 2015 at 8:54 PM


Visibility: 10 mi

Pressure: 29.79 "Hg

Humidity: 56%

Dew point: 30 °F

Location of AshevilleLocation

Historic Weather in Asheville — Graph

°F

Asheville temperature yesterday

Maximum temperature yesterday: 39 °F (at 5:54 AM)
Minimum temperature yesterday: 31 °F (at 9:54 PM)
Average temperature yesterday: 37 °F

Past Weeks' High & Low Weather Summary

 TemperatureHumidityPressure
High66 °F (Jan 20, 2:54 PM)100% (Jan 12, 7:54 AM)30.60 "Hg (Jan 12, 7:54 AM)
Low17 °F (Jan 11, 4:54 AM)17% (Jan 19, 2:54 PM)29.60 "Hg (Jan 24, 4:54 AM)
Average39 °F69%30.11 "Hg
* Reported Jan 10 8:54 PM — Jan 25 8:54 PM, Asheville, Weather by CustomWeather, © 2014

Note: Actual official high and low records may vary slightly from our data, if they occured in-between our weather recording intervals... More about our weather records

Advertising

Asheville weather history for previous 24 hours

 ConditionsComfort  
Time TempWeatherWind HumidityBarometerVisibility
8:54 PM
Jan 25
45 °FLight rain. Mostly cloudy.8 mph56%29.79 "Hg10 mi
7:54 PM45 °FOvercast.7 mph56%29.78 "Hg10 mi
6:54 PM46 °FOvercast.14 mph51%29.75 "Hg10 mi
5:54 PM47 °FClear.12 mph48%29.74 "Hg10 mi
4:54 PM50 °FPartly sunny.13 mph43%29.73 "Hg10 mi
3:54 PM51 °FSunny.15 mph39%29.71 "Hg10 mi
2:54 PM53 °FSunny.15 mph37%29.72 "Hg10 mi
1:54 PM54 °FSunny.15 mph35%29.73 "Hg10 mi
12:54 PM52 °FSunny.7 mph38%29.77 "Hg10 mi
11:54 AM47 °FSunny.No wind48%29.83 "Hg10 mi
10:54 AM41 °FSunny.6 mph60%29.89 "Hg10 mi
9:54 AM35 °FSunny.5 mph72%29.90 "Hg10 mi
8:54 AM30 °FSunny.No wind85%29.92 "Hg10 mi
7:54 AM26 °FSunny.No wind88%29.94 "Hg10 mi
6:54 AM27 °FClear.No wind89%29.92 "Hg10 mi
5:54 AM29 °FClear.No wind85%29.91 "Hg10 mi
4:54 AM30 °FClear.3 mph79%29.90 "Hg10 mi
3:54 AM33 °FClear.7 mph72%29.86 "Hg10 mi
2:54 AM31 °FClear.12 mph76%29.88 "Hg10 mi
1:54 AM33 °FClear.8 mph72%29.88 "Hg10 mi
12:54 AM35 °FClear.12 mph67%29.86 "Hg10 mi
11:54 PM
Jan 24
36 °FClear.8 mph64%29.84 "Hg10 mi
10:54 PM35 °FClear.14 mph64%29.83 "Hg10 mi
9:54 PM31 °FClear.8 mph73%29.84 "Hg10 mi
Weather by CustomWeather, © 2014

See weather overviewHow to use our weather pages